Location: Austin
(30.3000°N, 97.7500°W)
Time: 00:01:09
(UTC-05:00)

Meteor 2-8 Rocket - Pass Details

Date: 01 August 2025
Orbit: 936 x 958 km, 82.5° (Epoch: 15 May)

Event Time Altitude Azimuth Distance (km) Brightness Sun altitude
Exits shadow 05:25:17 18° 199° (SSW) 2,136 5.8 -17.0°
Maximum altitude 05:29:52 65° 277° (W) 1,032 4.4 -16.2°
Drops below altitude 10° 05:35:54 10° 359° (N) 2,657 7.2 -15.1°
Sets 05:38:25 0° 2° (N) 3,602 8.0 -14.6°
